owner,sensor,date,latitude,longitude,vertical_datum,sea_water_practical_salinity,qcFlag 
DISL,ioos:station:DISL:PPTA:1,2013-05-01T00:00:00Z,30.2791,-87.5561,1.375,27.46,1111122 
DISL,ioos:station:DISL:PPTA:1,2013-05-01T00:30:00Z,30.2791,-87.5561,1.386,30.13,1111122 
DISL,ioos:station:DISL:PPTA:1,2013-05-01T01:00:00Z,30.2791,-87.5561,1.348,30.36,1111122 
DISL,ioos:station:DISL:PPTA:1,2013-05-01T01:30:00Z,30.2791,-87.5561,1.34,30.19,1111122 
DISL,ioos:station:DISL:PPTA:1,2013-05-01T02:00:00Z,30.2791,-87.5561,1.338,29.78,1111122 
DISL,ioos:station:DISL:PPTA:1,2013-05-01T02:30:00Z,30.2791,-87.5561,1.339,29.46,1111122 
DISL,ioos:station:DISL:PPTA:1,2013-05-01T03:00:00Z,30.2791,-87.5561,1.301,29.4,1111122 
DISL,ioos:station:DISL:PPTA:1,2013-05-01T03:30:00Z,30.2791,-87.5561,1.305,28.62,1111122 
DISL,ioos:station:DISL:PPTA:1,2013-05-01T04:00:00Z,30.2791,-87.5561,1.289,28.55,1111122 
DISL,ioos:station:DISL:PPTA:1,2013-05-01T04:30:00Z,30.2791,-87.5561,1.275,27.75,1111122 
DISL,ioos:station:DISL:PPTA:1,2013-05-01T05:00:00Z,30.2791,-87.5561,1.273,28.21,1111122 
DISL,ioos:station:DISL:PPTA:1,2013-05-01T05:30:00Z,30.2791,-87.5561,1.262,27.51,1111122 
DISL,ioos:station:DISL:PPTA:1,2013-05-01T06:00:00Z,30.2791,-87.5561,1.257,27.28,1111122 
DISL,ioos:station:DISL:PPTA:1,2013-05-01T06:30:00Z,30.2791,-87.5561,1.258,26.33,1111122 
DISL,ioos:station:DISL:PPTA:1,2013-05-01T07:00:00Z,30.2791,-87.5561,1.261,26.5,1111122 
DISL,ioos:station:DISL:PPTA:1,2013-05-01T07:30:00Z,30.2791,-87.5561,1.236,25.35,1111122 
DISL,ioos:station:DISL:PPTA:1,2013-05-01T08:00:00Z,30.2791,-87.5561,1.228,25.27,1111122 
DISL,ioos:station:DISL:PPTA:1,2013-05-01T08:30:00Z,30.2791,-87.5561,1.254,23.89,1111122 
DISL,ioos:station:DISL:PPTA:1,2013-05-01T09:00:00Z,30.2791,-87.5561,1.264,23.5,1111122 
DISL,ioos:station:DISL:PPTA:1,2013-05-01T09:30:00Z,30.2791,-87.5561,1.297,24.82,1111122 
DISL,ioos:station:DISL:PPTA:1,2013-05-01T10:00:00Z,30.2791,-87.5561,1.296,24.02,1111122 
DISL,ioos:station:DISL:PPTA:1,2013-05-01T10:30:00Z,30.2791,-87.5561,1.308,24.66,1111122 
DISL,ioos:station:DISL:PPTA:1,2013-05-01T11:00:00Z,30.2791,-87.5561,1.287,25.7,1111122 
DISL,ioos:station:DISL:PPTA:1,2013-05-01T11:30:00Z,30.2791,-87.5561,1.307,25.42,1111122 
DISL,ioos:station:DISL:PPTA:1,2013-05-01T12:00:00Z,30.2791,-87.5561,1.334,25.38,1111122 
DISL,ioos:station:DISL:PPTA:1,2013-05-01T12:30:00Z,30.2791,-87.5561,1.359,28.02,1111122 
DISL,ioos:station:DISL:PPTA:1,2013-05-01T13:00:00Z,30.2791,-87.5561,1.368,28.57,1111122 
DISL,ioos:station:DISL:PPTA:1,2013-05-01T13:30:00Z,30.2791,-87.5561,1.381,28.55,1111122 
DISL,ioos:station:DISL:PPTA:1,2013-05-01T14:00:00Z,30.2791,-87.5561,1.425,29.68,1111122 
DISL,ioos:station:DISL:PPTA:1,2013-05-01T14:30:00Z,30.2791,-87.5561,1.417,29.6,1111122 
DISL,ioos:station:DISL:PPTA:1,2013-05-01T15:00:00Z,30.2791,-87.5561,1.454,29.02,1111122 
DISL,ioos:station:DISL:PPTA:1,2013-05-01T15:30:00Z,30.2791,-87.5561,1.495,29.92,1111122 
DISL,ioos:station:DISL:PPTA:1,2013-05-01T16:00:00Z,30.2791,-87.5561,1.475,29.72,1111122 
DISL,ioos:station:DISL:PPTA:1,2013-05-01T16:30:00Z,30.2791,-87.5561,1.471,29.68,1111122 
DISL,ioos:station:DISL:PPTA:1,2013-05-01T17:00:00Z,30.2791,-87.5561,1.522,29.91,1111122 
DISL,ioos:station:DISL:PPTA:1,2013-05-01T17:30:00Z,30.2791,-87.5561,1.547,29.45,1111122 
DISL,ioos:station:DISL:PPTA:1,2013-05-01T18:00:00Z,30.2791,-87.5561,1.551,29.87,1111122 
DISL,ioos:station:DISL:PPTA:1,2013-05-01T18:30:00Z,30.2791,-87.5561,1.559,30.2,1111122 
DISL,ioos:station:DISL:PPTA:1,2013-05-01T19:00:00Z,30.2791,-87.5561,1.593,30.16,1111122 
DISL,ioos:station:DISL:PPTA:1,2013-05-01T19:30:00Z,30.2791,-87.5561,1.562,29.78,1111122 
DISL,ioos:station:DISL:PPTA:1,2013-05-01T20:00:00Z,30.2791,-87.5561,1.557,30.17,1111122 
DISL,ioos:station:DISL:PPTA:1,2013-05-01T20:30:00Z,30.2791,-87.5561,1.6,30.27,1111122 
DISL,ioos:station:DISL:PPTA:1,2013-05-01T21:00:00Z,30.2791,-87.5561,1.575,29.48,1111122 
DISL,ioos:station:DISL:PPTA:1,2013-05-01T21:30:00Z,30.2791,-87.5561,1.581,29.8,1111122 
DISL,ioos:station:DISL:PPTA:1,2013-05-01T22:00:00Z,30.2791,-87.5561,1.615,27.96,1111122 
DISL,ioos:station:DISL:PPTA:1,2013-05-01T22:30:00Z,30.2791,-87.5561,1.569,27.55,1111122 
DISL,ioos:station:DISL:PPTA:1,2013-05-01T23:00:00Z,30.2791,-87.5561,1.578,28.73,1111122 
DISL,ioos:station:DISL:PPTA:1,2013-05-01T23:30:00Z,30.2791,-87.5561,1.576,28.6,1111122 
DISL,ioos:station:DISL:PPTA:1,2013-05-02T00:00:00Z,30.2791,-87.5561,1.571,28.93,1111122 
DISL,ioos:station:DISL:PPTA:1,2013-05-02T00:30:00Z,30.2791,-87.5561,1.586,28.13,1111122 
DISL,ioos:station:DISL:PPTA:1,2013-05-02T01:00:00Z,30.2791,-87.5561,1.544,29.06,1111122 
DISL,ioos:station:DISL:PPTA:1,2013-05-02T01:30:00Z,30.2791,-87.5561,1.536,28.44,1111122 
DISL,ioos:station:DISL:PPTA:1,2013-05-02T02:00:00Z,30.2791,-87.5561,1.516,28.64,1111122 
DISL,ioos:station:DISL:PPTA:1,2013-05-02T02:30:00Z,30.2791,-87.5561,1.51,28.6,1111122 
DISL,ioos:station:DISL:PPTA:1,2013-05-02T03:00:00Z,30.2791,-87.5561,1.532,29.33,1111122 
DISL,ioos:station:DISL:PPTA:1,2013-05-02T03:30:00Z,30.2791,-87.5561,1.498,28.3,1111122 
DISL,ioos:station:DISL:PPTA:1,2013-05-02T04:00:00Z,30.2791,-87.5561,1.486,28.37,1111122 
DISL,ioos:station:DISL:PPTA:1,2013-05-02T04:30:00Z,30.2791,-87.5561,1.475,28.26,1111122 
DISL,ioos:station:DISL:PPTA:1,2013-05-02T05:00:00Z,30.2791,-87.5561,1.465,28.8,1111122 
DISL,ioos:station:DISL:PPTA:1,2013-05-02T05:30:00Z,30.2791,-87.5561,1.483,28.72,1111122 
DISL,ioos:station:DISL:PPTA:1,2013-05-02T06:00:00Z,30.2791,-87.5561,1.478,28.33,1111122 
DISL,ioos:station:DISL:PPTA:1,2013-05-02T06:30:00Z,30.2791,-87.5561,1.452,28.11,1111122 
DISL,ioos:station:DISL:PPTA:1,2013-05-02T07:00:00Z,30.2791,-87.5561,1.457,28.23,1111122 
DISL,ioos:station:DISL:PPTA:1,2013-05-02T07:30:00Z,30.2791,-87.5561,1.473,28.16,1111122 
DISL,ioos:station:DISL:PPTA:1,2013-05-02T08:00:00Z,30.2791,-87.5561,1.529,28.77,1111122 
DISL,ioos:station:DISL:PPTA:1,2013-05-02T08:30:00Z,30.2791,-87.5561,1.503,28.19,1111122 
DISL,ioos:station:DISL:PPTA:1,2013-05-02T09:00:00Z,30.2791,-87.5561,1.466,28.13,1111122 
DISL,ioos:station:DISL:PPTA:1,2013-05-02T09:30:00Z,30.2791,-87.5561,1.418,28.18,1111122 
DISL,ioos:station:DISL:PPTA:1,2013-05-02T10:00:00Z,30.2791,-87.5561,1.434,28.61,1111122 
DISL,ioos:station:DISL:PPTA:1,2013-05-02T10:30:00Z,30.2791,-87.5561,1.469,28.17,1111122 
DISL,ioos:station:DISL:PPTA:1,2013-05-02T11:00:00Z,30.2791,-87.5561,1.448,28.12,1111122 
DISL,ioos:station:DISL:PPTA:1,2013-05-02T11:30:00Z,30.2791,-87.5561,1.473,27.26,1111122 
DISL,ioos:station:DISL:PPTA:1,2013-05-02T12:00:00Z,30.2791,-87.5561,1.427,26.9,1111122 
DISL,ioos:station:DISL:PPTA:1,2013-05-02T12:30:00Z,30.2791,-87.5561,1.462,26.53,1111122 
DISL,ioos:station:DISL:PPTA:1,2013-05-02T13:00:00Z,30.2791,-87.5561,1.415,26.38,1111122 
DISL,ioos:station:DISL:PPTA:1,2013-05-02T13:30:00Z,30.2791,-87.5561,1.46,26.07,1111122 
DISL,ioos:station:DISL:PPTA:1,2013-05-02T14:00:00Z,30.2791,-87.5561,1.503,25.83,1111122 
DISL,ioos:station:DISL:PPTA:1,2013-05-02T14:30:00Z,30.2791,-87.5561,1.476,26.57,1111122 
DISL,ioos:station:DISL:PPTA:1,2013-05-02T15:00:00Z,30.2791,-87.5561,1.464,26.73,1111122 
DISL,ioos:station:DISL:PPTA:1,2013-05-02T15:30:00Z,30.2791,-87.5561,1.497,26.63,1111122 
DISL,ioos:station:DISL:PPTA:1,2013-05-02T16:00:00Z,30.2791,-87.5561,1.49,26.77,1111122 
DISL,ioos:station:DISL:PPTA:1,2013-05-02T16:30:00Z,30.2791,-87.5561,1.51,26.76,1111122 
DISL,ioos:station:DISL:PPTA:1,2013-05-02T17:00:00Z,30.2791,-87.5561,1.528,27.95,1111122 
DISL,ioos:station:DISL:PPTA:1,2013-05-02T17:30:00Z,30.2791,-87.5561,1.488,28.35,1111122 
DISL,ioos:station:DISL:PPTA:1,2013-05-02T18:00:00Z,30.2791,-87.5561,1.509,28.39,1111122 
DISL,ioos:station:DISL:PPTA:1,2013-05-02T18:30:00Z,30.2791,-87.5561,1.507,28.22,1111122 
DISL,ioos:station:DISL:PPTA:1,2013-05-02T19:00:00Z,30.2791,-87.5561,1.518,28.52,1111122 
DISL,ioos:station:DISL:PPTA:1,2013-05-02T19:30:00Z,30.2791,-87.5561,1.526,28.27,1111122 
DISL,ioos:station:DISL:PPTA:1,2013-05-02T20:00:00Z,30.2791,-87.5561,1.519,28.54,1111122 
DISL,ioos:station:DISL:PPTA:1,2013-05-02T20:30:00Z,30.2791,-87.5561,1.532,28.26,1111122 
DISL,ioos:station:DISL:PPTA:1,2013-05-02T21:00:00Z,30.2791,-87.5561,1.497,28.76,1111122 
DISL,ioos:station:DISL:PPTA:1,2013-05-02T21:30:00Z,30.2791,-87.5561,1.493,28.11,1111122 
DISL,ioos:station:DISL:PPTA:1,2013-05-02T22:00:00Z,30.2791,-87.5561,1.466,28.0,1111122 
DISL,ioos:station:DISL:PPTA:1,2013-05-02T22:30:00Z,30.2791,-87.5561,1.486,26.87,1111122 
DISL,ioos:station:DISL:PPTA:1,2013-05-02T23:00:00Z,30.2791,-87.5561,1.483,26.34,1111122 
DISL,ioos:station:DISL:PPTA:1,2013-05-02T23:30:00Z,30.2791,-87.5561,1.484,26.26,1111122 
DISL,ioos:station:DISL:PPTA:1,2013-05-03T00:00:00Z,30.2791,-87.5561,1.47,26.22,1111122 
DISL,ioos:station:DISL:PPTA:1,2013-05-03T00:30:00Z,30.2791,-87.5561,1.48,26.8,1111122 
DISL,ioos:station:DISL:PPTA:1,2013-05-03T01:00:00Z,30.2791,-87.5561,1.464,27.94,1111122 
DISL,ioos:station:DISL:PPTA:1,2013-05-03T01:30:00Z,30.2791,-87.5561,1.44,28.5,1111122 
DISL,ioos:station:DISL:PPTA:1,2013-05-03T02:00:00Z,30.2791,-87.5561,1.429,27.86,1111122 
DISL,ioos:station:DISL:PPTA:1,2013-05-03T02:30:00Z,30.2791,-87.5561,1.425,27.16,1111122 
DISL,ioos:station:DISL:PPTA:1,2013-05-03T03:00:00Z,30.2791,-87.5561,1.421,27.31,1111122 
DISL,ioos:station:DISL:PPTA:1,2013-05-03T03:30:00Z,30.2791,-87.5561,1.396,26.99,1111122 
DISL,ioos:station:DISL:PPTA:1,2013-05-03T04:00:00Z,30.2791,-87.5561,1.402,27.08,1111122 
DISL,ioos:station:DISL:PPTA:1,2013-05-03T04:30:00Z,30.2791,-87.5561,1.38,26.85,1111122 
DISL,ioos:station:DISL:PPTA:1,2013-05-03T05:00:00Z,30.2791,-87.5561,1.371,26.54,1111122 
DISL,ioos:station:DISL:PPTA:1,2013-05-03T05:30:00Z,30.2791,-87.5561,1.353,26.13,1111122 
DISL,ioos:station:DISL:PPTA:1,2013-05-03T06:00:00Z,30.2791,-87.5561,1.373,25.88,1111122 
DISL,ioos:station:DISL:PPTA:1,2013-05-03T06:30:00Z,30.2791,-87.5561,1.374,25.38,1111122 
DISL,ioos:station:DISL:PPTA:1,2013-05-03T07:00:00Z,30.2791,-87.5561,1.367,25.65,1111122 
DISL,ioos:station:DISL:PPTA:1,2013-05-03T07:30:00Z,30.2791,-87.5561,1.366,25.38,1111122 
DISL,ioos:station:DISL:PPTA:1,2013-05-03T08:00:00Z,30.2791,-87.5561,1.369,25.11,1111122 
DISL,ioos:station:DISL:PPTA:1,2013-05-03T08:30:00Z,30.2791,-87.5561,1.362,24.59,1111122 
DISL,ioos:station:DISL:PPTA:1,2013-05-03T09:00:00Z,30.2791,-87.5561,1.365,24.25,1111122 
DISL,ioos:station:DISL:PPTA:1,2013-05-03T09:30:00Z,30.2791,-87.5561,1.357,24.39,1111122 
DISL,ioos:station:DISL:PPTA:1,2013-05-03T10:00:00Z,30.2791,-87.5561,1.369,23.15,1111122 
DISL,ioos:station:DISL:PPTA:1,2013-05-03T10:30:00Z,30.2791,-87.5561,1.369,23.49,1111122 
DISL,ioos:station:DISL:PPTA:1,2013-05-03T11:00:00Z,30.2791,-87.5561,1.382,24.46,1111122 
DISL,ioos:station:DISL:PPTA:1,2013-05-03T11:30:00Z,30.2791,-87.5561,1.389,23.31,1111122 
DISL,ioos:station:DISL:PPTA:1,2013-05-03T12:00:00Z,30.2791,-87.5561,1.39,23.71,1111122 
DISL,ioos:station:DISL:PPTA:1,2013-05-03T12:30:00Z,30.2791,-87.5561,1.414,24.79,1111122 
DISL,ioos:station:DISL:PPTA:1,2013-05-03T13:00:00Z,30.2791,-87.5561,1.428,26.7,1111122 
DISL,ioos:station:DISL:PPTA:1,2013-05-03T13:30:00Z,30.2791,-87.5561,1.441,28.84,1111122 
DISL,ioos:station:DISL:PPTA:1,2013-05-03T14:00:00Z,30.2791,-87.5561,1.424,29.13,1111122 
DISL,ioos:station:DISL:PPTA:1,2013-05-03T14:30:00Z,30.2791,-87.5561,1.433,29.42,1111122 
DISL,ioos:station:DISL:PPTA:1,2013-05-03T15:00:00Z,30.2791,-87.5561,1.411,29.56,1111122 
DISL,ioos:station:DISL:PPTA:1,2013-05-03T15:30:00Z,30.2791,-87.5561,1.443,29.89,1111122 
DISL,ioos:station:DISL:PPTA:1,2013-05-03T16:00:00Z,30.2791,-87.5561,1.454,29.8,1111122 
DISL,ioos:station:DISL:PPTA:1,2013-05-03T16:30:00Z,30.2791,-87.5561,1.442,29.95,1111122 
DISL,ioos:station:DISL:PPTA:1,2013-05-03T17:00:00Z,30.2791,-87.5561,1.439,29.86,1111122 
DISL,ioos:station:DISL:PPTA:1,2013-05-03T17:30:00Z,30.2791,-87.5561,1.458,30.23,1111122 
DISL,ioos:station:DISL:PPTA:1,2013-05-03T18:00:00Z,30.2791,-87.5561,1.461,30.26,1111122 
DISL,ioos:station:DISL:PPTA:1,2013-05-03T18:30:00Z,30.2791,-87.5561,1.457,29.98,1111122 
DISL,ioos:station:DISL:PPTA:1,2013-05-03T19:00:00Z,30.2791,-87.5561,1.494,30.04,1111122 
DISL,ioos:station:DISL:PPTA:1,2013-05-03T19:30:00Z,30.2791,-87.5561,1.469,30.3,1111122 
DISL,ioos:station:DISL:PPTA:1,2013-05-03T20:00:00Z,30.2791,-87.5561,1.467,30.06,1111122 
DISL,ioos:station:DISL:PPTA:1,2013-05-03T20:30:00Z,30.2791,-87.5561,1.472,30.04,1111122 
DISL,ioos:station:DISL:PPTA:1,2013-05-03T21:00:00Z,30.2791,-87.5561,1.463,30.24,1111122 
DISL,ioos:station:DISL:PPTA:1,2013-05-03T21:30:00Z,30.2791,-87.5561,1.458,27.28,1111122 
DISL,ioos:station:DISL:PPTA:1,2013-05-03T22:00:00Z,30.2791,-87.5561,1.467,24.21,1111122 
DISL,ioos:station:DISL:PPTA:1,2013-05-03T22:30:00Z,30.2791,-87.5561,1.47,25.5,1111122 
DISL,ioos:station:DISL:PPTA:1,2013-05-03T23:00:00Z,30.2791,-87.5561,1.454,27.82,1111122 
DISL,ioos:station:DISL:PPTA:1,2013-05-03T23:30:00Z,30.2791,-87.5561,1.467,24.6,1111122 
DISL,ioos:station:DISL:PPTA:1,2013-05-04T00:00:00Z,30.2791,-87.5561,1.459,26.31,1111122 
DISL,ioos:station:DISL:PPTA:1,2013-05-04T00:30:00Z,30.2791,-87.5561,1.441,23.97,1111122 
DISL,ioos:station:DISL:PPTA:1,2013-05-04T01:00:00Z,30.2791,-87.5561,1.417,26.34,1111122 
DISL,ioos:station:DISL:PPTA:1,2013-05-04T01:30:00Z,30.2791,-87.5561,1.417,25.68,1111122 
DISL,ioos:station:DISL:PPTA:1,2013-05-04T02:00:00Z,30.2791,-87.5561,1.385,27.17,1111122 
DISL,ioos:station:DISL:PPTA:1,2013-05-04T02:30:00Z,30.2791,-87.5561,1.368,25.72,1111122 
DISL,ioos:station:DISL:PPTA:1,2013-05-04T03:00:00Z,30.2791,-87.5561,1.354,25.46,1111122 
DISL,ioos:station:DISL:PPTA:1,2013-05-04T03:30:00Z,30.2791,-87.5561,1.335,25.47,1111122 
DISL,ioos:station:DISL:PPTA:1,2013-05-04T04:00:00Z,30.2791,-87.5561,1.328,25.4,1111122 
DISL,ioos:station:DISL:PPTA:1,2013-05-04T04:30:00Z,30.2791,-87.5561,1.297,25.81,1111122 
DISL,ioos:station:DISL:PPTA:1,2013-05-04T05:00:00Z,30.2791,-87.5561,1.267,25.68,1111122 
DISL,ioos:station:DISL:PPTA:1,2013-05-04T05:30:00Z,30.2791,-87.5561,1.252,25.83,1111122 
DISL,ioos:station:DISL:PPTA:1,2013-05-04T06:00:00Z,30.2791,-87.5561,1.27,24.35,1111122 
DISL,ioos:station:DISL:PPTA:1,2013-05-04T06:30:00Z,30.2791,-87.5561,1.254,23.79,1111122 
DISL,ioos:station:DISL:PPTA:1,2013-05-04T07:00:00Z,30.2791,-87.5561,1.243,22.88,1111122 
DISL,ioos:station:DISL:PPTA:1,2013-05-04T07:30:00Z,30.2791,-87.5561,1.246,22.51,1111122 
DISL,ioos:station:DISL:PPTA:1,2013-05-04T08:00:00Z,30.2791,-87.5561,1.251,23.02,1111122 
DISL,ioos:station:DISL:PPTA:1,2013-05-04T08:30:00Z,30.2791,-87.5561,1.246,22.8,1111122 
DISL,ioos:station:DISL:PPTA:1,2013-05-04T09:00:00Z,30.2791,-87.5561,1.258,22.79,1111122 
DISL,ioos:station:DISL:PPTA:1,2013-05-04T09:30:00Z,30.2791,-87.5561,1.266,22.61,1111122 
DISL,ioos:station:DISL:PPTA:1,2013-05-04T10:00:00Z,30.2791,-87.5561,1.244,22.83,1111122 
DISL,ioos:station:DISL:PPTA:1,2013-05-04T10:30:00Z,30.2791,-87.5561,1.261,21.76,1111122 
DISL,ioos:station:DISL:PPTA:1,2013-05-04T11:00:00Z,30.2791,-87.5561,1.235,21.37,1111122 
DISL,ioos:station:DISL:PPTA:1,2013-05-04T11:30:00Z,30.2791,-87.5561,1.22,21.25,1111122 
DISL,ioos:station:DISL:PPTA:1,2013-05-04T12:00:00Z,30.2791,-87.5561,1.233,20.77,1111122 
DISL,ioos:station:DISL:PPTA:1,2013-05-04T12:30:00Z,30.2791,-87.5561,1.234,21.77,1111122 
DISL,ioos:station:DISL:PPTA:1,2013-05-04T13:00:00Z,30.2791,-87.5561,1.252,20.07,1111122 
DISL,ioos:station:DISL:PPTA:1,2013-05-04T13:30:00Z,30.2791,-87.5561,1.256,19.78,1111122 
DISL,ioos:station:DISL:PPTA:1,2013-05-04T14:00:00Z,30.2791,-87.5561,1.264,19.73,1111122 
DISL,ioos:station:DISL:PPTA:1,2013-05-04T14:30:00Z,30.2791,-87.5561,1.251,19.77,1111122 
DISL,ioos:station:DISL:PPTA:1,2013-05-04T15:00:00Z,30.2791,-87.5561,1.24,22.15,1111122 
DISL,ioos:station:DISL:PPTA:1,2013-05-04T15:30:00Z,30.2791,-87.5561,1.233,24.09,1111122 
DISL,ioos:station:DISL:PPTA:1,2013-05-04T16:00:00Z,30.2791,-87.5561,1.217,21.3,1111122 
DISL,ioos:station:DISL:PPTA:1,2013-05-04T16:30:00Z,30.2791,-87.5561,1.219,21.2,1111122 
DISL,ioos:station:DISL:PPTA:1,2013-05-04T17:00:00Z,30.2791,-87.5561,1.246,20.8,1111122 
DISL,ioos:station:DISL:PPTA:1,2013-05-04T17:30:00Z,30.2791,-87.5561,1.233,20.86,1111122 
DISL,ioos:station:DISL:PPTA:1,2013-05-04T18:00:00Z,30.2791,-87.5561,1.242,20.51,1111122 
DISL,ioos:station:DISL:PPTA:1,2013-05-04T18:30:00Z,30.2791,-87.5561,1.239,20.93,1111122 
DISL,ioos:station:DISL:PPTA:1,2013-05-04T19:00:00Z,30.2791,-87.5561,1.243,20.96,1111122 
DISL,ioos:station:DISL:PPTA:1,2013-05-04T19:30:00Z,30.2791,-87.5561,1.235,22.3,1111122 
DISL,ioos:station:DISL:PPTA:1,2013-05-04T20:00:00Z,30.2791,-87.5561,1.252,28.65,1111122 
DISL,ioos:station:DISL:PPTA:1,2013-05-04T20:30:00Z,30.2791,-87.5561,1.245,29.4,1111122 
DISL,ioos:station:DISL:PPTA:1,2013-05-04T21:00:00Z,30.2791,-87.5561,1.238,29.09,1111122 
DISL,ioos:station:DISL:PPTA:1,2013-05-04T21:30:00Z,30.2791,-87.5561,1.251,30.45,1111122 
DISL,ioos:station:DISL:PPTA:1,2013-05-04T22:00:00Z,30.2791,-87.5561,1.244,30.13,1111122 
DISL,ioos:station:DISL:PPTA:1,2013-05-04T22:30:00Z,30.2791,-87.5561,1.252,30.98,1111122 
DISL,ioos:station:DISL:PPTA:1,2013-05-04T23:00:00Z,30.2791,-87.5561,1.25,30.54,1111122 
DISL,ioos:station:DISL:PPTA:1,2013-05-04T23:30:00Z,30.2791,-87.5561,1.278,30.53,1111122 
DISL,ioos:station:DISL:PPTA:1,2013-05-05T00:00:00Z,30.2791,-87.5561,1.248,30.53,1111122 
DISL,ioos:station:DISL:PPTA:1,2013-05-05T00:30:00Z,30.2791,-87.5561,1.266,28.69,1111122 
DISL,ioos:station:DISL:PPTA:1,2013-05-05T01:00:00Z,30.2791,-87.5561,1.263,32.86,1111122 
DISL,ioos:station:DISL:PPTA:1,2013-05-05T01:30:00Z,30.2791,-87.5561,1.269,31.55,1111122 
DISL,ioos:station:DISL:PPTA:1,2013-05-05T02:00:00Z,30.2791,-87.5561,1.275,32.18,1111122 
DISL,ioos:station:DISL:PPTA:1,2013-05-05T02:30:00Z,30.2791,-87.5561,1.238,32.72,1111122 
DISL,ioos:station:DISL:PPTA:1,2013-05-05T03:00:00Z,30.2791,-87.5561,1.261,28.75,1111122 
DISL,ioos:station:DISL:PPTA:1,2013-05-05T03:30:00Z,30.2791,-87.5561,1.248,22.78,1111122 
DISL,ioos:station:DISL:PPTA:1,2013-05-05T04:00:00Z,30.2791,-87.5561,1.242,22.28,1111122 
DISL,ioos:station:DISL:PPTA:1,2013-05-05T04:30:00Z,30.2791,-87.5561,1.242,23.97,1111122 
DISL,ioos:station:DISL:PPTA:1,2013-05-05T05:00:00Z,30.2791,-87.5561,1.244,29.75,1111122 
DISL,ioos:station:DISL:PPTA:1,2013-05-05T05:30:00Z,30.2791,-87.5561,1.253,22.96,1111122 
DISL,ioos:station:DISL:PPTA:1,2013-05-05T06:00:00Z,30.2791,-87.5561,1.25,24.99,1111122 
DISL,ioos:station:DISL:PPTA:1,2013-05-05T06:30:00Z,30.2791,-87.5561,1.237,26.66,1111122 
DISL,ioos:station:DISL:PPTA:1,2013-05-05T07:00:00Z,30.2791,-87.5561,1.246,21.53,1111122 
DISL,ioos:station:DISL:PPTA:1,2013-05-05T07:30:00Z,30.2791,-87.5561,1.269,20.77,1111122 
DISL,ioos:station:DISL:PPTA:1,2013-05-05T08:00:00Z,30.2791,-87.5561,1.254,23.51,1111122 
DISL,ioos:station:DISL:PPTA:1,2013-05-05T08:30:00Z,30.2791,-87.5561,1.242,22.95,1111122 
DISL,ioos:station:DISL:PPTA:1,2013-05-05T09:00:00Z,30.2791,-87.5561,1.25,22.54,1111122 
DISL,ioos:station:DISL:PPTA:1,2013-05-05T09:30:00Z,30.2791,-87.5561,1.241,21.73,1111122 
DISL,ioos:station:DISL:PPTA:1,2013-05-05T10:00:00Z,30.2791,-87.5561,1.234,21.17,1111122 
DISL,ioos:station:DISL:PPTA:1,2013-05-05T10:30:00Z,30.2791,-87.5561,1.248,25.73,1111122 
DISL,ioos:station:DISL:PPTA:1,2013-05-05T11:00:00Z,30.2791,-87.5561,1.256,19.08,1111122 
DISL,ioos:station:DISL:PPTA:1,2013-05-05T11:30:00Z,30.2791,-87.5561,1.254,21.05,1111122 
DISL,ioos:station:DISL:PPTA:1,2013-05-05T12:00:00Z,30.2791,-87.5561,1.263,20.78,1111122 
DISL,ioos:station:DISL:PPTA:1,2013-05-05T12:30:00Z,30.2791,-87.5561,1.249,22.06,1111122 
DISL,ioos:station:DISL:PPTA:1,2013-05-05T13:00:00Z,30.2791,-87.5561,1.228,24.04,1111122 
DISL,ioos:station:DISL:PPTA:1,2013-05-05T13:30:00Z,30.2791,-87.5561,1.208,26.1,1111122 
DISL,ioos:station:DISL:PPTA:1,2013-05-05T14:00:00Z,30.2791,-87.5561,1.203,28.94,1111122 
DISL,ioos:station:DISL:PPTA:1,2013-05-05T14:30:00Z,30.2791,-87.5561,1.192,29.23,1111122 
DISL,ioos:station:DISL:PPTA:1,2013-05-05T15:00:00Z,30.2791,-87.5561,1.152,29.72,1111122 
DISL,ioos:station:DISL:PPTA:1,2013-05-05T15:30:00Z,30.2791,-87.5561,1.135,24.86,1111122 
DISL,ioos:station:DISL:PPTA:1,2013-05-05T16:00:00Z,30.2791,-87.5561,1.135,22.36,1111122 
DISL,ioos:station:DISL:PPTA:1,2013-05-05T16:30:00Z,30.2791,-87.5561,1.109,23.81,1111122 
DISL,ioos:station:DISL:PPTA:1,2013-05-05T17:00:00Z,30.2791,-87.5561,1.099,23.59,1111122 
DISL,ioos:station:DISL:PPTA:1,2013-05-05T17:30:00Z,30.2791,-87.5561,1.098,23.3,1111122 
DISL,ioos:station:DISL:PPTA:1,2013-05-05T18:00:00Z,30.2791,-87.5561,1.1,21.99,1111122 
DISL,ioos:station:DISL:PPTA:1,2013-05-05T18:30:00Z,30.2791,-87.5561,1.102,22.65,1111122 
DISL,ioos:station:DISL:PPTA:1,2013-05-05T19:00:00Z,30.2791,-87.5561,1.095,21.65,1111122 
DISL,ioos:station:DISL:PPTA:1,2013-05-05T19:30:00Z,30.2791,-87.5561,1.075,22.73,1111122 
DISL,ioos:station:DISL:PPTA:1,2013-05-05T20:00:00Z,30.2791,-87.5561,1.076,21.49,1111122 
DISL,ioos:station:DISL:PPTA:1,2013-05-05T20:30:00Z,30.2791,-87.5561,1.087,23.15,1111122 
DISL,ioos:station:DISL:PPTA:1,2013-05-05T21:00:00Z,30.2791,-87.5561,1.084,21.77,1111122 
DISL,ioos:station:DISL:PPTA:1,2013-05-05T21:30:00Z,30.2791,-87.5561,1.074,21.13,1111122 
DISL,ioos:station:DISL:PPTA:1,2013-05-05T22:00:00Z,30.2791,-87.5561,1.083,21.0,1111122 
DISL,ioos:station:DISL:PPTA:1,2013-05-05T22:30:00Z,30.2791,-87.5561,1.091,20.96,1111122 
DISL,ioos:station:DISL:PPTA:1,2013-05-05T23:00:00Z,30.2791,-87.5561,1.098,20.52,1111122 
DISL,ioos:station:DISL:PPTA:1,2013-05-05T23:30:00Z,30.2791,-87.5561,1.074,20.73,1111122 
DISL,ioos:station:DISL:PPTA:1,2013-05-06T00:00:00Z,30.2791,-87.5561,1.089,20.36,1111122 
DISL,ioos:station:DISL:PPTA:1,2013-05-06T00:30:00Z,30.2791,-87.5561,1.091,20.19,1111122 
DISL,ioos:station:DISL:PPTA:1,2013-05-06T01:00:00Z,30.2791,-87.5561,1.087,20.63,1111122 
DISL,ioos:station:DISL:PPTA:1,2013-05-06T01:30:00Z,30.2791,-87.5561,1.101,21.09,1111122 
DISL,ioos:station:DISL:PPTA:1,2013-05-06T02:00:00Z,30.2791,-87.5561,1.09,20.99,1111122 
DISL,ioos:station:DISL:PPTA:1,2013-05-06T02:30:00Z,30.2791,-87.5561,1.101,21.05,1111122 
DISL,ioos:station:DISL:PPTA:1,2013-05-06T03:00:00Z,30.2791,-87.5561,1.084,22.57,1111122 
DISL,ioos:station:DISL:PPTA:1,2013-05-06T03:30:00Z,30.2791,-87.5561,1.094,22.77,1111122 
DISL,ioos:station:DISL:PPTA:1,2013-05-06T04:00:00Z,30.2791,-87.5561,1.084,22.55,1111122 
DISL,ioos:station:DISL:PPTA:1,2013-05-06T04:30:00Z,30.2791,-87.5561,1.085,22.73,1111122 
DISL,ioos:station:DISL:PPTA:1,2013-05-06T05:00:00Z,30.2791,-87.5561,1.074,22.49,1111122 
DISL,ioos:station:DISL:PPTA:1,2013-05-06T05:30:00Z,30.2791,-87.5561,1.087,21.71,1111122 
DISL,ioos:station:DISL:PPTA:1,2013-05-06T06:00:00Z,30.2791,-87.5561,1.079,20.66,1111122 
DISL,ioos:station:DISL:PPTA:1,2013-05-06T06:30:00Z,30.2791,-87.5561,1.098,21.01,1111122 
DISL,ioos:station:DISL:PPTA:1,2013-05-06T07:00:00Z,30.2791,-87.5561,1.109,21.99,1111122 
DISL,ioos:station:DISL:PPTA:1,2013-05-06T07:30:00Z,30.2791,-87.5561,1.112,22.58,1111122 
DISL,ioos:station:DISL:PPTA:1,2013-05-06T08:00:00Z,30.2791,-87.5561,1.115,25.13,1111122 
DISL,ioos:station:DISL:PPTA:1,2013-05-06T08:30:00Z,30.2791,-87.5561,1.123,28.84,1111122 
DISL,ioos:station:DISL:PPTA:1,2013-05-06T09:00:00Z,30.2791,-87.5561,1.134,31.59,1111122 
DISL,ioos:station:DISL:PPTA:1,2013-05-06T09:30:00Z,30.2791,-87.5561,1.145,32.09,1111122 
DISL,ioos:station:DISL:PPTA:1,2013-05-06T10:00:00Z,30.2791,-87.5561,1.155,31.91,1111122 
DISL,ioos:station:DISL:PPTA:1,2013-05-06T10:30:00Z,30.2791,-87.5561,1.17,32.43,1111122 
DISL,ioos:station:DISL:PPTA:1,2013-05-06T11:00:00Z,30.2791,-87.5561,1.176,31.87,1111122 
DISL,ioos:station:DISL:PPTA:1,2013-05-06T11:30:00Z,30.2791,-87.5561,1.19,31.05,1111122 
DISL,ioos:station:DISL:PPTA:1,2013-05-06T12:00:00Z,30.2791,-87.5561,1.19,31.19,1111122 
DISL,ioos:station:DISL:PPTA:1,2013-05-06T12:30:00Z,30.2791,-87.5561,1.199,31.25,1111122 
DISL,ioos:station:DISL:PPTA:1,2013-05-06T13:00:00Z,30.2791,-87.5561,1.205,31.28,1111122 
DISL,ioos:station:DISL:PPTA:1,2013-05-06T13:30:00Z,30.2791,-87.5561,1.205,31.23,1111122 
DISL,ioos:station:DISL:PPTA:1,2013-05-06T14:00:00Z,30.2791,-87.5561,1.206,31.19,1111122 